DW9665 Sarajevo BA current weather conditions

sailwx.info

Wind from 270

Air temperature 18.3° C
Dewpoint 8.3° C

Last reported at 2015-Jul-04 23:47 UTC.
Time now 2015-Jul-05 00:06 UTC

Location: N 43°50' E 018°21'.
View on Google Maps.

See reports from other nearby stations

  
Tides and Currents Weather Stations Pressure Air Temp Water Temp Dewpoint Dewpoint Depression Visibility Wind Speed Wind Dir Waves Ship Positions
date/time (UTC)wind fromknots sea level pressurealtimeterstation pressurevisibilityair tempwater tempwave heightnotes
2015-Jul-04 23:47 270 18.3
2015-Jul-04 23:32 292 18.9
2015-Jul-04 23:17 180 18.9
2015-Jul-04 23:02 158 18.9
2015-Jul-04 22:47 158 19.4
2015-Jul-04 22:32 158 19.4
2015-Jul-04 22:17 180 20.0
2015-Jul-04 22:02 270 20.0
2015-Jul-04 21:47 135 20.6
2015-Jul-04 21:32 270 20.6
2015-Jul-04 21:17 292 1 gusting 3 21.1
2015-Jul-04 21:02 180 1 gusting 2 21.7
2015-Jul-04 20:47 270 0 gusting 1 22.2
2015-Jul-04 20:32 270 22.8
2015-Jul-04 20:17 270 22.8
2015-Jul-04 20:02 180 23.9
2015-Jul-04 19:47 135 0 gusting 3 23.9
2015-Jul-04 19:32 135 0 gusting 3 24.4
2015-Jul-04 19:17 112 24.4
2015-Jul-04 19:02 112 25.0
2015-Jul-04 18:47 090 25.0
2015-Jul-04 18:32 068 3 gusting 5 25.6
2015-Jul-04 17:02 315 3 gusting 11 26.7
2015-Jul-04 16:32 315 3 gusting 10 27.2
2015-Jul-04 16:17 338 7 gusting 8 27.8
2015-Jul-04 16:02 090 0 gusting 6 28.3
2015-Jul-04 15:47 338 1 gusting 10 28.3
2015-Jul-04 15:32 292 2 gusting 8 28.3
2015-Jul-04 15:17 180 2 gusting 9 28.3
2015-Jul-04 15:02 180 1 gusting 9 28.3
2015-Jul-04 14:47 292 2 gusting 11 27.8
2015-Jul-04 14:32 315 1 gusting 9 27.8
2015-Jul-04 14:17 27.8
2015-Jul-04 14:02 315 3 gusting 8 28.3
2015-Jul-04 13:47 292 3 gusting 7 28.3
2015-Jul-04 13:32 338 1 gusting 8 28.3
2015-Jul-04 13:17 338 6 gusting 11 28.3
2015-Jul-04 13:02 022 1 gusting 5 28.9
2015-Jul-04 12:47 270 3 gusting 6 28.3
2015-Jul-04 12:32 338 3 gusting 6 28.3
2015-Jul-04 12:17 135 3 gusting 4 28.3
2015-Jul-04 12:02 338 2 gusting 7 28.3
2015-Jul-04 11:47 045 0 gusting 8 27.8
2015-Jul-04 11:32 022 1 gusting 6 27.8
2015-Jul-04 11:17 022 3 gusting 5 27.2
2015-Jul-04 11:02 045 3 gusting 5 27.2
2015-Jul-04 10:47 270 27.2
2015-Jul-04 10:32 112 2 gusting 5 26.1
2015-Jul-04 10:17 022 2 gusting 3 25.6
2015-Jul-04 10:02 270 0 gusting 3 25.0
2015-Jul-04 09:47 270 1 gusting 3 24.4
2015-Jul-04 09:32 022 0 gusting 5 23.9
2015-Jul-04 09:17 292 2 gusting 3 23.9
2015-Jul-04 09:02 270 1 gusting 5 23.3
2015-Jul-04 08:47 270 2 gusting 3 23.3
2015-Jul-04 08:32 270 0 gusting 3 23.3
2015-Jul-04 08:17 180 0 gusting 2 23.3
2015-Jul-04 08:02 21.7
2015-Jul-04 07:47 292 2 gusting 2 21.7
2015-Jul-04 07:32 180 0 gusting 2 22.2
2015-Jul-04 07:17 180 0 gusting 2 21.1
2015-Jul-04 07:02 270 0 gusting 1 20.6
2015-Jul-04 06:47 135 19.4
2015-Jul-04 06:32 135 1 gusting 1 18.9
2015-Jul-04 06:17 292 17.8
2015-Jul-04 06:02 270 0 gusting 2 17.2
2015-Jul-04 05:47 112 16.7
2015-Jul-04 05:32 180 15.6
2015-Jul-04 05:17 270 15.6
2015-Jul-04 05:02 270 15.0
2015-Jul-04 04:47 270 14.4
2015-Jul-04 04:32 158 2 gusting 3 14.4
2015-Jul-04 04:17 180 2 gusting 3 13.9
2015-Jul-04 04:02 135 13.9
2015-Jul-04 03:47 158 13.3
2015-Jul-04 03:32 180 13.3
2015-Jul-04 03:17 180 0 gusting 2 13.3
2015-Jul-04 03:02 158 13.9
2015-Jul-04 02:47 135 0 gusting 2 13.9
2015-Jul-04 02:32 158 1 gusting 1 13.9
2015-Jul-04 02:17 158 13.9
2015-Jul-04 02:02 022 14.4
2015-Jul-04 01:47 180 14.4
2015-Jul-04 01:32 180 14.4
2015-Jul-04 01:17 270 0 gusting 2 15.0
2015-Jul-04 01:02 270 1 gusting 0 15.6
2015-Jul-04 00:47 135 15.6
2015-Jul-04 00:32 135 15.6
2015-Jul-04 00:17 068 15.6
2015-Jul-04 00:02 270 0 gusting 2 16.1
2015-Jul-03 23:47 292 1 gusting 2 16.7
2015-Jul-03 23:32 315 16.7
2015-Jul-03 23:17 338 17.2
2015-Jul-03 23:02 270 17.2
2015-Jul-03 22:47 270 17.2
2015-Jul-03 22:32 270 17.8
2015-Jul-03 22:17 270 18.3
2015-Jul-03 22:02 022 18.3
2015-Jul-03 21:47 112 18.9
2015-Jul-03 21:32 270 19.4
2015-Jul-03 21:17 090 19.4
2015-Jul-03 21:02 158 0 gusting 2 20.0
2015-Jul-03 20:47 158 20.6
2015-Jul-03 20:32 338 1 gusting 5 20.6
2015-Jul-03 20:17 022 2 gusting 4 21.1
2015-Jul-03 20:02 022 1 gusting 4 21.7
2015-Jul-03 19:47 21.7
2015-Jul-03 19:32 045 1 gusting 4 22.2
2015-Jul-03 19:17 338 1 gusting 4 22.8
2015-Jul-03 19:02 022 1 gusting 6 23.3
2015-Jul-03 18:47 022 1 gusting 5 23.3
2015-Jul-03 18:17 045 1 gusting 6 24.4
2015-Jul-03 18:02 24.4
2015-Jul-03 17:47 270 3 gusting 6 25.0
2015-Jul-03 17:32 338 1 gusting 8 25.6
2015-Jul-03 17:17 270 5 gusting 11 25.6
2015-Jul-03 17:02 338 6 gusting 7 26.1
2015-Jul-03 16:47 338 2 gusting 9 26.1
2015-Jul-03 16:32 26.1
2015-Jul-03 16:17 315 5 gusting 11 26.1
2015-Jul-03 16:02 292 6 gusting 11 26.7
2015-Jul-03 15:47 068 5 gusting 12 26.7
2015-Jul-03 15:32 135 1 gusting 11 27.2
2015-Jul-03 15:17 068 3 gusting 13 27.2
2015-Jul-03 15:02 022 3 gusting 9 26.7
2015-Jul-03 14:47 338 5 gusting 9 27.2
2015-Jul-03 14:32 022 6 gusting 9 26.7
2015-Jul-03 14:17 338 3 gusting 8 26.7
2015-Jul-03 14:02 135 2 gusting 11 27.2
2015-Jul-03 13:47 315 8 gusting 11 26.7
2015-Jul-03 13:32 022 7 gusting 11 26.7
2015-Jul-03 13:17 315 8 gusting 13 26.7
2015-Jul-03 13:02 26.7
2015-Jul-03 12:47 338 6 gusting 12 26.1
2015-Jul-03 12:32 315 2 gusting 13 26.7
2015-Jul-03 12:17 022 1 gusting 11 26.1
2015-Jul-03 12:02 338 4 gusting 9 26.7
2015-Jul-03 11:47 26.1
2015-Jul-03 11:32 022 6 gusting 6 26.1
2015-Jul-03 11:17 315 2 gusting 8 26.1
2015-Jul-03 11:02 135 1 gusting 7 25.6
2015-Jul-03 10:47 338 5 gusting 6 25.6
2015-Jul-03 10:32 270 1 gusting 6 25.6
2015-Jul-03 10:17 338 5 gusting 7 25.0
2015-Jul-03 10:02 270 2 gusting 5 25.0
2015-Jul-03 09:47 180 3 gusting 6 24.4
2015-Jul-03 09:32 292 2 gusting 4 23.9
2015-Jul-03 09:17 180 2 gusting 3 24.4
2015-Jul-03 09:02 180 0 gusting 7 22.2
2015-Jul-03 08:47 270 2 gusting 6 22.2
2015-Jul-03 08:32 270 3 gusting 6 22.2
2015-Jul-03 08:17 292 1 gusting 3 22.8
2015-Jul-03 08:02 112 23.3
2015-Jul-03 07:47 180 22.2
2015-Jul-03 07:32 135 0 gusting 2 21.7
2015-Jul-03 07:17 090 0 gusting 2 20.0
2015-Jul-03 07:02 270 1 gusting 1 20.0
2015-Jul-03 06:47 112 0 gusting 2 19.4
2015-Jul-03 06:32 180 0 gusting 3 18.3
2015-Jul-03 06:17 112 0 gusting 2 16.7
2015-Jul-03 06:02 270 16.7
2015-Jul-03 05:47 292 16.1
2015-Jul-03 05:32 158 16.1
2015-Jul-03 05:17 270 16.7
2015-Jul-03 05:02 135 15.6
2015-Jul-03 04:47 270 0 gusting 2 15.6
2015-Jul-03 04:32 270 15.6
2015-Jul-03 04:17 180 15.6
2015-Jul-03 04:02 270 0 gusting 1 15.0
2015-Jul-03 03:47 270 15.0
2015-Jul-03 03:32 180 15.0
2015-Jul-03 03:17 135 15.0
2015-Jul-03 03:02 270 15.0
2015-Jul-03 02:47 292 15.0
2015-Jul-03 02:32 022 15.0
2015-Jul-03 02:17 158 15.6
2015-Jul-03 02:02 270 15.6
2015-Jul-03 01:47 180 15.6
2015-Jul-03 01:32 270 15.6
2015-Jul-03 01:17 270 16.1
2015-Jul-03 01:02 158 16.1
2015-Jul-03 00:47 16.1
2015-Jul-03 00:32 180 16.7
2015-Jul-03 00:17 180 0 gusting 1 16.7
2015-Jul-03 00:02 180 0 gusting 3 17.2